Showing default

GONETS M 14 (M24), 44905

Orbit data source: Space-Track

GONETS M 14 (M24), 44905 is a payload satellite owned by Gonets (CIS) in LEO that was launched on Thu, 26 Dec 2019 UTC via an ROKOT launch vehicle from the Plesetsk Missile And Space Complex (PKMTR). Payload-class satellites include a variety of spacecraft equipped with specific instruments for various scientific and technological missions. These include communications satellites like Starlink; space stations such as the ISS; scientific satellites like the Hubble; Earth observation satellites from companies like Planet Labs, Umbra, and HawkEye 360; GPS; miniature CubeSats for education and research; and military/defense satellites.

Loading next visibility...
Identifier
44905, 2019-096A
Orbit
LEO
Last TLE update
8 hours ago
Origin
Manufacturer
Resehetnev ISS
Mission
Operational Commercial Communications
Bus & Motor
STRELA-3M, Unknown motor
Mass
225 kg wet, 225 kg dry
Launch date (UTC)
2019-12-26 (6 years ago)
Launch vehicle
ROKOT
Launch site
Plesetsk Missile And Space Complex (PKMTR)
Object type
Payload
Rocket body
Debris
Shape & HBR
Cyl + 1 Ant, 7 m
Radar Cross Section
1.798 m², Large (>1 m²)

Expand to show TLE details & history

TLE from 8 hours ago
0 GONETS M 14 (M24)
1 44905U 19096A   25186.91022465  .00000014  00000-0  28080-4 0  9995
2 44905  82.5247 299.2980 0014019 184.3412 175.7549 12.42894411250662
Epoch: 2025-07-05T21:50Z
TLE epoch observation values (Epoch: 2025-07-05T21:50:43.409Z)
Latitude
0.00003°
Longitude
47.47564°
Altitude
1,508.066 km
Speed
7.106 km/s
True Right ascension
19h 57m 11s
True Declination
0° 00' 00"
Sunlit
Object was in full shadow at epoch
Visualization orbit readout
Latitude
41.96142°
Longitude
-139.48551°
Altitude
1,492.662 km
Speed
7.125 km/s
Apparent Right ascension
06h 56m 04s
Apparent Declination
6° 16' 59"
Sunlit
Object is in daylight
Visualization observer readout
Local Sidereal Time
18:16:12
Azimuth
346.419° N
Elevation
-42.894°
Doppler factor
1
Orbital elements
Apogee altitude
1,502.74 km
Perigee altitude
1,480.675 km
Semi-major axis
7,869.845 km
Eccentricity
0.0014
Inclination
82.5247°
RAAN
299.298°
Arg. of periapsis
184.3412°
True anomaly
Unknown
Mean anomaly
175.7549°
Eccentric anomaly
Unknown
Mean motion
3.10881 °/min
Orbital period
115.8 mins
BSTAR
0.00002808
Loading maneuver chart data...
Loading SW <> Apogee altitude chart data...
Loading historical data...
Loading historical data...
Loading historical data...
Loading historical data...
Loading historical data...
Loading historical data...
Loading historical data...
Other satellites on launch #96 in the year 2019 (2019-12-26 UTC)

GONETS M 14 (M24) Visibility forecast

Observer location: undefined°, undefined°

Span
Click to sort rows by Start time (UTC) header in descending order
Start Az.
Max El. time (UTC)
Max El. Az.
Max El.
End time (UTC)
End Az.
15 mins2025-07-06 07:35:43.227Z161.152° S2025-07-06 07:42:43.227Z99.564° ESE38.643°2025-07-06 07:50:43.227Z18.364° NNE
14 mins2025-07-06 09:33:43.227Z232.437° WSW2025-07-06 09:40:43.227Z294.941° NW28.539°2025-07-06 09:47:43.227Z350.154° N
12 mins2025-07-06 17:47:43.227Z20.925° NNE2025-07-06 17:53:43.227Z71.101° E22.811°2025-07-06 17:59:43.227Z117.313° SE
15 mins2025-07-06 19:43:43.227Z346.153° N2025-07-06 19:50:43.227Z273.698° WNW43.141°2025-07-06 19:58:43.227Z186.834° SSW
|